DW9167 Weather Reports


Display with metric or nautical units.
time (UTC)temp
F
wind
direction
speed
MPH
gust
MPH
rain 1hr
in
rain 24hr
in
rain mn
in
humidity
%
barometer
mb
20240518222315 96 177 0.0 1.0 0.00 0.00 0.00 43 1056.2
20240518220313 95 270 0.0 0.0 0.00 0.00 0.00 44 1056.5
20240518215314 95 45 0.0 0.0 0.00 0.00 0.00 46 1056.5
20240518213315 95 112 0.0 1.0 0.00 0.00 0.00 45 1056.5
20240518212315 96 270 0.0 0.0 0.00 0.00 0.00 45 1056.5
20240518211315 95 227 0.0 0.0 0.00 0.00 0.00 45 1056.5
20240518204414 94 180 0.0 0.0 0.00 0.00 0.00 48 1056.9
20240518203416 93 180 0.0 1.0 0.00 0.00 0.00 50 1057.2
20240518201414 93 135 0.0 0.0 0.00 0.00 0.00 51 1057.6
20240518200414 93 180 2.0 4.0 0.00 0.00 0.00 50 1057.6
20240518195416 92 135 0.0 1.0 0.00 0.00 0.00 52 1057.6
20240518194414 91 180 0.0 0.0 0.00 0.00 0.00 54 1057.9
20240518193415 91 332 0.0 5.0 0.00 0.00 0.00 49 1057.9
20240518192415 91 360 0.0 0.0 0.00 0.00 0.00 54 1057.9
20240518191416 90 14 0.0 3.0 0.00 0.00 0.00 53 1057.9
20240518190514 90 219 0.0 2.0 0.00 0.00 0.00 53 1058.3
20240518185613 89 142 0.0 4.0 0.00 0.00 0.00 57 1058.7
20240518184614 90 325 1.0 5.0 0.00 0.00 0.00 53 1058.7
20240518181714 87 304 0.0 3.0 0.00 0.00 0.00 61 1059.4
20240518180814 87 312 1.0 6.0 0.00 0.00 0.00 61 1059.4
20240518175815 87 157 0.0 2.0 0.00 0.00 0.00 60 1059.7
20240518174816 87 219 0.0 5.0 0.00 0.00 0.00 60 1059.7
20240518173815 86 285 0.0 3.0 0.00 0.00 0.00 61 1059.7
20240518172814 87 127 1.0 5.0 0.00 0.00 0.00 62 1060.1
20240518171815 86 292 0.0 1.0 0.00 0.00 0.00 62 1059.7
20240518170913 87 129 0.0 2.0 0.00 0.00 0.00 62 1059.7
20240518165913 85 67 0.0 0.0 0.00 0.00 0.00 64 1059.7
20240518164915 85 180 0.0 0.0 0.00 0.00 0.00 67 1060.1
20240518164012 84 180 0.0 0.0 0.00 0.00 0.00 68 1060.1
20240518163015 82 27 0.0 3.0 0.00 0.00 0.00 69 1060.1
20240518162112 80 28 0.0 2.0 0.00 0.00 0.00 74 1060.5
20240518155213 77 179 0.0 2.0 0.00 0.00 0.00 79 1060.8
20240518153229 76 145 0.0 2.0 0.00 0.00 0.00 81 1060.8
20240518152213 76 135 0.0 1.0 0.00 0.00 0.00 83 1061.2
20240518151312 75 147 1.0 3.0 0.00 0.00 0.00 84 1061.2
20240518145313 74 67 0.0 0.0 0.00 0.00 0.00 90 1061.6
20240518144412 73 180 0.0 0.0 0.00 0.00 0.00 91 1061.6
20240518143415 72 157 0.0 0.0 0.00 0.00 0.00 94 1061.9
20240518142416 72 180 0.0 0.0 0.00 0.00 0.00 98 1062.3
20240518141514 71 67 0.0 0.0 0.00 0.00 0.00 99 1061.9
20240518140512 70 132 0.0 3.0 0.00 0.00 0.00 100 1061.9
20240518135514 69 112 0.0 1.0 0.00 0.00 0.00 96 1062.3
20240518134516 69 180 0.0 0.0 0.00 0.00 0.00 90 1062.3
20240518133514 68 157 0.0 0.0 0.00 0.00 0.00 86 1062.3
20240518132514 68 157 0.0 2.0 0.00 0.00 0.00 81 1062.3
20240518131613 67 157 0.0 1.0 0.00 0.00 0.00 77 1062.3
20240518130613 67 159 0.0 0.0 0.00 0.00 0.00 76 1061.9
20240518125614 66 337 0.0 0.0 0.00 0.00 0.00 77 1062.3
20240518124614 66 337 0.0 0.0 0.00 0.00 0.00 76 1061.9
20240518123615 66 337 0.0 0.0 0.00 0.00 0.00 82 1061.9
20240518122615 65 337 0.0 0.0 0.00 0.00 0.00 86 1061.9
20240518121616 65 337 0.0 0.0 0.00 0.00 0.00 86 1061.9
20240518114613 66 337 0.0 0.0 0.00 0.00 0.00 90 1061.2
20240518113615 67 337 0.0 0.0 0.00 0.00 0.00 91 1061.2
20240518112616 67 337 0.0 0.0 0.00 0.00 0.00 91 1061.2
20240518111714 67 90 0.0 0.0 0.00 0.00 0.00 89 1061.2
20240518110713 67 90 0.0 0.0 0.00 0.00 0.00 90 1061.2
20240518103815 67 18 0.0 0.0 0.00 0.00 0.00 89 1060.8
20240518102914 67 135 0.0 0.0 0.00 0.00 0.00 89 1060.8
20240518101913 67 180 0.0 0.0 0.00 0.00 0.00 89 1060.6
20240518095913 67 180 0.0 0.0 0.00 0.00 0.00 90 1060.5
20240518094915 67 112 0.0 2.0 0.00 0.00 0.00 90 1060.7
20240518094012 67 157 0.0 0.0 0.00 0.00 0.00 91 1060.8
20240518093015 67 180 0.0 0.0 0.00 0.00 0.00 92 1060.5
20240518092113 68 135 0.0 0.0 0.00 0.00 0.00 91 1060.1
20240518091212 67 180 0.0 2.0 0.00 0.00 0.00 91 1060.1
20240518090212 68 156 0.0 3.0 0.00 0.00 0.00 90 1060.1
20240518084216 68 180 0.0 0.0 0.00 0.00 0.00 86 1060.1
20240518083214 68 180 0.0 0.0 0.00 0.00 0.00 86 1060.1
20240518082213 68 180 0.0 0.0 0.00 0.00 0.00 86 1060.1
20240518080314 68 155 1.0 4.0 0.00 0.00 0.00 88 1060.1
20240518075314 68 169 0.0 2.0 0.00 0.00 0.00 90 1060.1
20240518072315 68 180 0.0 0.0 0.00 0.00 0.00 93 1059.4
20240518072213 68 180 1.0 5.0 0.00 0.00 0.00 93 1059.4
20240518070216 69 270 0.0 0.0 0.00 0.00 0.00 92 1059.7
20240518065313 69 179 1.0 4.0 0.00 0.00 0.00 93 1059.7
20240518064314 69 180 0.0 0.0 0.00 0.00 0.00 93 1060.1
20240518063313 69 180 1.0 4.0 0.00 0.00 0.00 93 1059.7
20240518062315 69 173 1.0 5.0 0.00 0.00 0.00 94 1060.1
20240518061313 69 180 0.0 0.0 0.00 0.00 0.00 95 1060.1
20240518060314 69 180 0.0 0.0 0.00 0.00 0.00 95 1060.1
20240518053315 70 180 0.0 0.0 0.00 0.00 0.00 99 1059.7
20240518052412 70 144 0.0 2.0 0.00 0.00 0.00 99 1059.7
20240518051415 70 179 0.0 0.0 0.00 0.00 0.00 99 1059.7
20240518050514 71 180 0.0 1.0 0.00 0.00 0.00 98 1059.7
20240518045515 71 186 0.0 3.0 0.00 0.00 0.00 97 1060.1
20240518044515 70 270 0.0 0.0 0.00 0.00 0.00 97 1059.7
20240518043517 70 270 0.0 0.0 0.00 0.00 0.00 97 1059.7
20240518041615 71 270 0.0 0.0 0.00 0.00 0.00 96 1059.7
20240518040614 71 270 0.0 0.0 0.00 0.00 0.00 95 1059.7
20240518034616 71 22 0.0 0.0 0.00 0.00 0.00 92 1059.4
20240518033616 71 22 0.0 0.0 0.00 0.00 0.00 92 1059.0
20240518032714 71 22 0.0 0.0 0.00 0.00 0.00 92 1059.0
20240518031717 71 22 0.0 0.0 0.00 0.00 0.00 91 1058.7
20240518030715 71 22 0.0 0.0 0.00 0.00 0.00 89 1058.3
20240518025714 72 22 0.0 0.0 0.00 0.00 0.00 86 1057.9
20240518023717 73 22 0.0 0.0 0.00 0.00 0.00 86 1057.6
20240518022715 73 22 0.0 0.0 0.00 0.00 0.00 84 1057.2
20240518021716 73 22 0.0 0.0 0.00 0.00 0.00 85 1057.6
20240518020717 73 22 0.0 0.0 0.00 0.00 0.00 83 1057.2
20240518015815 73 22 0.0 0.0 0.00 0.00 0.00 80 1057.2
20240518014815 74 22 0.0 0.0 0.00 0.00 0.00 77 1057.6
20240518013816 75 22 0.0 0.0 0.00 0.00 0.00 76 1057.6
20240518012816 75 22 0.0 0.0 0.00 0.00 0.00 74 1057.2
20240518011816 76 22 0.0 0.0 0.00 0.00 0.00 73 1057.2
20240518010814 77 22 0.0 0.0 0.00 0.00 0.00 71 1056.9
20240518005816 78 22 0.0 0.0 0.00 0.00 0.00 69 1056.5
20240518003914 81 22 0.0 0.0 0.00 0.00 0.00 64 1056.0
20240518002916 83 22 0.0 0.0 0.00 0.00 0.00 60 1055.4
20240518002014 85 22 0.0 0.0 0.00 0.00 0.00 56 1055.1
20240518001014 85 337 0.0 2.0 0.00 0.00 0.00 50 1054.7
20240517234115 85 360 0.0 0.0 0.00 0.00 0.00 51 1055.1
20240517233114 84 360 1.0 4.0 0.00 0.00 0.00 52 1055.1
20240517232117 84 277 1.0 5.0 0.00 0.00 0.00 54 1055.1
20240517230115 85 296 2.0 5.0 0.00 0.00 0.00 51 1054.7
20240517225114 86 337 0.0 0.0 0.00 0.00 0.00 52 1054.7
20240517224115 86 3 2.0 6.0 0.00 0.00 0.00 51 1054.7